www.pogodaiklimat.ru

Погода и климат >> Архив погоды >> Боливия >> San Joaquin


ПОГОДА в San Joaquin

  • Прогноз погоды в San Joaquin
  • Монитор погоды в San Joaquin
  • Климат города

АРХИВ ПОГОДЫ в San Joaquin

Время (UTC), дата Ветер
(напр.,м/с)
 
Видим.   Явления Облачность Т
(С)
Тd
(С)
f
(%)
Тe
(С)
Тes
(С)
Комфортность P
(гПа)
Po
(гПа)
Тmin
(С)
Tmax
(С)
R
(мм)
R24
(мм)
S
(см)
18 10.07 Ю 7 15 км ясно +21.2 +9.6 47 +23 +26 комфорт 1019.7 1003.2
21 10.07 Ю 5 15 км ясно +22.1 +11.0 49 +24 +25 комфорт 1017.6 1001.1 +20.5
12 11.07 ЮВ 3 15 км ясно +12.5 +8.8 78 +11 +13 1017.6 1001.0 +11.0
15 11.07 ЮВ 4 15 км ясно +21.6 +12.4 56 +24 +33 комфорт 1018.4 1001.8
18 11.07 ЮВ 3 15 км ясно +25.7 +13.5 47 +28 +38 жарко 1016.2 1000.0
21 11.07 штиль 0 15 км ясно +27.1 +15.8 50 +30 +32 душно 1014.7 998.5 +28.4
12 12.07 штиль 0 15 км 8/0 2000 м
[Ac trans Ci]
+14.0 +13.1 94 +14 +16 1016.9 1000.4 +11.6
15 12.07 Ю 2 15 км 6/0
[Ci]
+24.6 +15.2 56 +28 +39 душно 1017.8 1001.6
18 12.07 ЮЗ 2 15 км 3/0
[Ci fib]
+28.3 +16.8 50 +32 +43 душно 1016.3 1000.0
21 12.07 штиль 0 15 км 3/0
[Ci fib]
+30.2 +17.8 47 +34 +36 очень
душно
1015.2 999.0 +31.0
12 13.07 штиль 0 15 км 6/0
[Ci fib]
+17.6 +16.7 94 +18 +20 1016.4 1000.0 +15.3
15 13.07 штиль 0 15 км 6/0
[Ci fib]
+28.3 +19.3 58 +34 +49 очень
душно
1017.2 1001.0
18 13.07 СЗ 3 15 км 6/0
[Ci]
+31.7 +19.0 47 +37 +46 очень
душно
1015.7 999.6
21 13.07 СЗ 2 15 км 6/0
[Ci]
+32.0 +20.1 49 +38 +39 очень
душно
1013.9 997.8 +33.7
12 14.07 штиль 0 15 км 4/0
[Ci fib]
+18.7 +17.8 95 +20 +22 1014.2 997.8 +17.2
15 14.07 штиль 0 15 км 3/0
[Ci fib]
+30.0 +20.7 57 +37 +54 опасность
солнечного
удара
1015.5 999.4
18 14.07 СЗ 3 15 км 5/5 500 м
[Cu med, cong]
+32.5 +20.7 50 +40 +45 очень
душно
1013.9 997.8
21 14.07 СЗ 2 15 км 3/3 500 м
[Cu med, cong]
+32.1 +21.0 52 +40 +40 очень
душно
1012.4 996.4 +34.6
12 15.07 штиль 0 15 км 3/0 2000 м
[Ac trans]
+21.0 +20.2 95 +26 +28 душно 1013.4 997.1 +18.3
15 15.07 СЗ 4 15 км 1/1 500 м
[Cu hum]
+29.6 +22.4 65 +39 +46 очень
душно
1015.0 998.8
18 15.07 СЗ 4 15 км 5/5 500 м
[Cu med, cong]
+32.1 +22.4 57 +42 +46 опасность
перегрева
1013.7 997.6
21 15.07 СЗ 3 15 км 3/3 500 м
[Cu med, cong]
+32.4 +22.6 56 +42 +43 опасность
перегрева
1012.3 996.3 +33.8
12 16.07 штиль 0 15 км 4/0 2000 м
[Ac trans Ci fib]
+21.7 +20.8 95 +28 +30 душно 1015.4 999.1 +20.1
15 16.07 штиль 0 15 км 4/1 500 м
[Cu hum Ci fib]
+31.0 +22.7 61 +41 +56 опасность
перегрева
1016.7 1000.6
18 16.07 штиль 0 15 км 6/6 500 м
[Cu med, cong]
+33.0 +23.2 56 +43 +50 опасность
перегрева
1015.1 999.0
21 16.07 штиль 0 15 км 1/1 500 м
[Cu med, cong]
+32.9 +22.9 56 +43 +44 опасность
перегрева
1013.1 997.0 +34.8
12 17.07 штиль 0 15 км ясно +22.0 +21.0 94 +28 +31 душно 1014.3 998.2 +19.8
15 17.07 С 3 15 км 1/1 500 м
[Cu hum]
+31.1 +22.8 61 +41 +52 опасность
перегрева
1015.4 999.3

 

Местоположение метеостанции San Joaquin (Боливия): широта -13.06 долгота -64.81 высота над уровнем моря 140 м.

В архиве по умолчанию представлена погода в San Joaquin за последнюю неделю. Архивные данные за месяц целиком и за предыдущие месяцы, начиная с января 2011 года, Вы можете получить, выбрав интересующий диапазон дат из раскрывающегося списка и нажав кнопку "Ввод!".


*Определитесь, кто Вы:
робот инопланетянин человек

Внимание! Время в таблицах - всемирное. Для получения местного времени необходимо прибавить поправку, которая в San Joaquin равна -4 ч.

Смотрите также архив погоды в соседних городах и на ближайших метеорологических станциях:

Погода в San Ramon (Боливия) (29 км)
Погода в Magdalena (Боливия) (82 км)
Погода в Baures (Боливия) (102 км)
Погода в Santa Ana (Боливия) (103 км)
Погода в Trinidad (Боливия) (195 км)
Погода в San Ignacio De Moxo (Боливия) (223 км)
Погода в Santa Rosa (Боливия) (257 км)
Погода в Riberalta (Боливия) (269 км)
Погода в San Borja (Боливия) (298 км)
Погода в Reyes (Боливия) (311 км)

Пояснения к столбцам:

Ветер - указаны скорость ветра в м/с - средняя за 10 мин, порывы в срок и между сроками (в фигурных скобках) и направление, откуда дует ветер: С - северный, СВ - северо-восточный, В - восточный, ЮВ - юго-восточный, Ю - южный, ЮЗ - юго-западный, З - западный, СЗ - северо-западный.
Видимость - горизонтальная дальность видимости в метрах или километрах. При видимости от 1 до 10 км при отсутствии осадков обычно наблюдается дымка, при ухудшении видимости до 1 км и менее - туман. В сухую погоду видимость может ухудшаться дымом, пылью или мглою.
Явления - указаны атмосферные явления, наблюдавшиеся в срок или в последний час перед сроком; фигурными скобками обозначены явления, наблюдавшиеся между сроками (за 1-3 часа до срока); квадратными скобками обозначены град или гололедные отложения с указанием их диаметра в мм.
Облачность - указаны через наклонную черту общая и нижняя облачность в баллах и высота нижней границы облаков в метрах; квадратными скобками обозначены формы облаков: Ci - перистые, Cs - перисто-слоистые, Cc - перисто-кучевые, Ac - высококучевые, As - высокослоистые, Sc - слоисто-кучевые, Ns - слоисто-дождевые, Cu - кучевые, Cb - кучево-дождевые. Подробнее классификацию облаков см. в Атласе облаков (PDF).
T - Температура воздуха - температура, измеренная на высоте 2 м над землей.
Td - Температура точки росы - температура, при понижении до которой содержащийся в воздухе водяной пар достигнет насыщения.
f - Относительная влажность воздуха - влажноcть воздуха, измеренная на высоте 2 м над землей.
Te - Эффективная температура - температура, которую ощущает одетый по сезону человек в тени. Характеристика душности погоды. При расчете учитывается влияние влажности воздуха и скорости ветра на теплоощущения человека.
Tes - Эффективная температура на солнце - температура, которую ощущает человек, с поправкой на солнечный нагрев. Характеристика знойности погоды. Зависит от высоты солнца над горизонтом, облачности и скорости ветра. Ночью, в пасмурную погоду, а также при ветре 12 м/с и более поправка равна нулю.
P - Атмосферное давление - приведенное к уровню моря атмосферное давление.
Po - Атмосферное давление - измеренное на уровне метеостанции атмосферное давление.
Tmin - Минимальная температура - минимум температуры воздуха на высоте 2 м над землей.
Tmax - Максимальная температура - максимум температуры воздуха на высоте 2 м над землей.
R - Количество осадков - Количество выпавших осадков за период времени, мм. При наведении курсора мыши на число - период времени, за который выпало указанное количество осадков.
R24 - Количество осадков - Количество выпавших осадков за 24 часа, мм.
S - Снежный покров - Высота снежного покрова, см. При наведении курсора мыши на число - состояние снежного покрова и степень покрытия местности в баллах.